Voltar ao catálogo

STARLINK-37747

AtivoComunicaçõesSSO
NORAD 69440·PAYLOAD·🇺🇸 United States

Lançado Jun 7, 2026 de Vandenberg Space Force Base

Loading…

Próximas Passagens (próximas 24 horas)

TLE

AtualizadoSource: CelesTrak SupGP

Época: Sep 15, 2026, 03:58 UTC

1 69440C 26126W   26258.16576389 -.00020816  00000+0 -64632-3 0  2588
2 69440  97.2843 119.5267 0001881  93.1307 142.6620 15.33441839    13

Acompanhe STARLINK-37747 em tempo real com AllMySat

Download on the App Store